Location: Boitzum
(52.1496°N, 9.6943°E)
Time: 05:47:47
(UTC+00:00)

IGS 5A - Pass Details

Date: 13 January 2026
Orbit: 551 x 554 km, 97.4° (Epoch: 8 January)

Event Time Altitude Azimuth Distance (km) Brightness Sun altitude
Rises 06:03:14 0° 7° (N) 2,743 6.8 -11.9°
Reaches altitude 10° 06:05:28 10° 359° (N) 1,843 5.8 -11.6°
Maximum altitude 06:09:09 37° 292° (WNW) 874 3.8 -11.0°
Drops below altitude 10° 06:12:48 10° 225° (SW) 1,830 5.8 -10.5°
Sets 06:15:01 0° 217° (SW) 2,719 6.7 -10.2°
